Location: Newark
(25.4800°N, 85.7200°E)
Time: 21:20:36
(UTC+00:00)

Vanguard 1 Rocket - Pass Details

Date: 28 August 2019
Orbit: 650 x 4226 km, 34.3° (Epoch: 13 October)

Event Time Altitude Azimuth Distance (km) Brightness Sun altitude
Rises 13:51:49 0° 200° (SSW) 6,529 11.8 -16.3°
Reaches altitude 10° 14:00:00 10° 178° (S) 4,559 10.7 -18.0°
Maximum altitude 14:04:40 13° 154° (SSE) 3,722 10.1 -19.0°
Enters shadow 14:04:59 13° 152° (SSE) 3,682 10.0 -19.1°
Drops below altitude 10° 14:08:24 10° 129° (SE) 3,485 - -19.8°
Sets 14:12:47 0° 102° (ESE) 3,901 - -20.7°
